TimeCDT,TemperatureF,Dew PointF,Humidity,Sea Level PressureIn,VisibilityMPH,Wind Direction,Wind SpeedMPH,Gust SpeedMPH,PrecipitationIn,Events,Conditions,WindDirDegrees,DateUTC
12:53 AM,75.0,72.0,90,30.03,9.0,Calm,Calm,-,N/A,,Clear,0,2012-10-15 05:53:00
1:53 AM,73.9,71.1,91,30.03,9.0,Calm,Calm,-,N/A,,Mostly Cloudy,0,2012-10-15 06:53:00
2:53 AM,75.9,73.0,91,30.04,8.0,North,3.5,-,N/A,,Scattered Clouds,360,2012-10-15 07:53:00
3:53 AM,75.9,72.0,87,30.02,10.0,NNW,5.8,-,N/A,,Mostly Cloudy,340,2012-10-15 08:53:00
4:53 AM,75.9,72.0,87,30.03,10.0,NNE,5.8,-,N/A,,Overcast,30,2012-10-15 09:53:00
5:07 AM,75.2,71.6,89,30.02,10.0,NNE,4.6,-,N/A,,Overcast,20,2012-10-15 10:07:00
5:15 AM,75.2,71.6,89,30.01,10.0,NNE,4.6,-,N/A,,Overcast,20,2012-10-15 10:15:00
5:53 AM,75.9,71.1,85,30.02,10.0,NNE,4.6,-,N/A,,Overcast,30,2012-10-15 10:53:00
6:53 AM,75.0,70.0,84,30.03,10.0,NNE,5.8,-,N/A,,Clear,30,2012-10-15 11:53:00
7:13 AM,75.2,69.8,83,30.01,10.0,NNE,12.7,-,N/A,,Mostly Cloudy,20,2012-10-15 12:13:00
7:25 AM,73.4,66.2,78,30.02,10.0,NNE,12.7,-,N/A,,Scattered Clouds,30,2012-10-15 12:25:00
7:53 AM,73.9,64.0,71,30.03,10.0,NE,10.4,-,N/A,,Clear,40,2012-10-15 12:53:00
8:53 AM,73.9,63.0,68,30.05,10.0,NNE,9.2,-,N/A,,Clear,30,2012-10-15 13:53:00
9:53 AM,77.0,63.0,62,30.07,10.0,NE,10.4,-,N/A,,Clear,40,2012-10-15 14:53:00
10:53 AM,80.1,61.0,52,30.08,10.0,NE,11.5,-,N/A,,Clear,40,2012-10-15 15:53:00
11:53 AM,82.9,61.0,47,30.08,10.0,NE,11.5,-,N/A,,Clear,50,2012-10-15 16:53:00
12:53 PM,84.0,61.0,46,30.05,10.0,ENE,11.5,-,N/A,,Clear,60,2012-10-15 17:53:00
1:53 PM,82.0,63.0,52,30.01,10.0,ENE,9.2,-,N/A,,Clear,70,2012-10-15 18:53:00
2:53 PM,84.0,64.9,53,29.99,10.0,ESE,11.5,-,N/A,,Clear,110,2012-10-15 19:53:00
3:53 PM,82.9,62.1,49,29.97,10.0,East,10.4,-,N/A,,Clear,90,2012-10-15 20:53:00
4:53 PM,82.0,66.0,58,29.95,10.0,East,10.4,-,N/A,,Clear,100,2012-10-15 21:53:00
5:53 PM,81.0,66.9,62,29.95,10.0,East,9.2,-,N/A,,Clear,90,2012-10-15 22:53:00
6:53 PM,78.1,66.0,66,29.96,10.0,East,6.9,-,N/A,,Clear,100,2012-10-15 23:53:00
7:53 PM,78.1,66.9,68,29.97,10.0,East,6.9,-,N/A,,Clear,100,2012-10-16 00:53:00
8:53 PM,77.0,66.9,71,29.99,10.0,East,6.9,-,N/A,,Clear,100,2012-10-16 01:53:00
9:53 PM,77.0,66.9,71,30.00,10.0,East,6.9,-,N/A,,Clear,100,2012-10-16 02:53:00
10:53 PM,77.0,66.9,71,29.99,10.0,ENE,6.9,-,N/A,,Clear,60,2012-10-16 03:53:00
11:53 PM,73.0,66.0,79,29.99,10.0,NE,5.8,-,N/A,,Clear,40,2012-10-16 04:53:00